レモン彗星

C/2023 H5 ( Lemmon )

English version
Home page
Updated on June 29, 2024

---------------------------------------------------------------------

・ プロフィール

発見日 2023年4月19日
発見光度 20.2等
発見者 Mt. Lemmon Survey

・ 写真集

・ 軌道要素

Epoch 2024 Mar. 31.0 TT = JDT 2460400.5
T 2025 June 30.15147 TT                                 Rudenko
q   4.3129895            (2000.0)            P               Q
z  -0.0000923      Peri.   60.07855     -0.42558873     +0.83566440
 +/-0.0000006      Node   159.48290     -0.07916372     -0.41657908
e   1.0003980      Incl.   97.86783     +0.90144736     +0.35794814
>From 633 observations 2022 Dec. 1-2024 June 18, mean residual 0".5.

・ 星図

・ 光度変化

        m1 = 2.5 + 5 logΔ + 15.0 log r

---------------------------------------------------------------------

軌道要素はM.P.E.C. 2024-M41に掲載されたものです。
星図はステラナビゲータ Ver.11 (アストロアーツ) で作成したものです。
光度グラフはComet for Windowsで作成したものです。

---------------------------------------------------------------------

Copyright(C) Seiichi Yoshida (comet@aerith.net). All rights reserved.